Regional Weather Roundup
Issued by NWS

Home | Current Version | Previous Version | Graphics & Text | Print | Product List | Glossary On
Versions: 1 2 3 4 5 6 7 8 9 10 11 12 13 14 15 16 17 18 19 20 21 22 23 24 25 26 27
000
ASUS45 KBOU 191106
RWRCO

WEATHER ROUNDUP FOR COLORADO
NATIONAL WEATHER SERVICE DENVER/BOULDER CO
500 AM MDT SAT APR 19 2014

NOTE: "FAIR" INDICATES FEW OR NO CLOUDS BELOW 12000 FEET WITH NO
SIGNIFICANT WEATHER AND/OR OBSTRUCTIONS TO VISIBILITY.

COZ001>005-013-030-031-191200-
...NORTHWEST COLORADO...

CITY           SKY/WX    TMP DP  RH WIND       PRES   REMARKS
CRAIG          CLOUDY    40  33  76 E5        30.06R
HAYDEN         MOCLDY    41  30  65 E5        30.08S
MEEKER         MOCLDY    51  32  48 CALM      30.07R
MOUNT WERNER   CLOUDY    37  23  56 W12       30.21S
STEAMBOAT SPGS PTCLDY    39  27  62 CALM      30.08R
WALDEN         MOCLDY    36  23  60 S6        30.10S
$$

COZ006>008-011-191200-
...WEST CENTRAL VALLEYS...

CITY           SKY/WX    TMP DP  RH WIND       PRES   REMARKS
GRAND JUNCTION LGT RAIN  55  40  56 W9        30.03R
MONTROSE       CLOUDY    54  35  48 CALM      30.08R
EAGLE          CLOUDY    45  34  65 E8        30.10R
RIFLE          MOCLDY    50  34  54 S6        30.04S
DELTA          CLOUDY    58  35  41 W9        30.04S
NUCLA          DRIZZLE   48  41  76 E6        30.15R
$$

COZ017>023-064>068-191200-
...SOUTHWEST COLORADO...

CITY           SKY/WX    TMP DP  RH WIND       PRES   REMARKS
DURANGO        LGT RAIN  45  43  93 NE6       30.14F
CORTEZ         CLOUDY    47  46  97 E5        30.12S
PAGOSA SPRINGS LGT RAIN  43  42  95 SW5       30.18R
TELLURIDE      LGT RAIN  39  34  81 SE3       30.18S
WOLF CREEK PAS HVY SNOW  28  28 100 SW13G24   30.26S VSB 1/4 WCI  18
$$

COZ009-010-012-014-032>034-037-058>063-191200-
...CENTRAL COLORADO...

CITY           SKY/WX    TMP DP  RH WIND       PRES   REMARKS
ASPEN          MOCLDY    37  29  72 S7        30.11S
BUENA VISTA    MOCLDY    39  29  67 CALM      30.12R
COPPER MTN     MOCLDY    34  25  69 W12       30.26R WCI  25
BERTHOUD PASS  FAIR      25  16  68 NW13      30.28R WCI  13
COTTONWOOD PAS MOCLDY    43  27  52 W12       30.18R
GUNNISON       MOCLDY    39  27  60 CALM      30.16R
KREMMLING      CLOUDY    37  28  70 CALM      30.12R
LEADVILLE      MOCLDY    29  23  78 NE7       30.17S WCI  22
MONARCH PASS   CLOUDY    32  23  69 W12       30.36S WCI  23
SALIDA         MOCLDY    44  28  53 N8        30.17S
SUNLIGHT       CLOUDY    36  30  80 W5        30.23S
WILKERSON PASS CLOUDY    36  21  55 W8        30.25S
$$

COZ069>075-191200-
...SAN LUIS VALLEY/SANGRE DE CRISTO MOUNTAINS...

CITY           SKY/WX    TMP DP  RH WIND       PRES   REMARKS
ALAMOSA        CLOUDY    44  34  67 S12       30.12F
LA VETA PASS   MOCLDY    34  32  93 SW13G29   30.18F WCI  25
SAGUACHE       CLOUDY    41  25  52 W6        30.12R
$$

COZ035-036-038>040-191200-
...NORTHERN COLORADO FRONT RANGE...

CITY           SKY/WX    TMP DP  RH WIND       PRES   REMARKS
DENVER INTL AP CLOUDY    49  31  49 NE8       29.95R
DMNS CITY PARK   N/A     55  29  36 S8        29.94R
AURORA         CLOUDY    54  28  37 S7        29.96R
FRONT RANGE AP NOT AVBL
ERIE MUNI ARPT CLOUDY    54  32  43 CALM      29.93S
BOULDER MUN AP CLOUDY    61  28  29 N3        29.93S
CENTENNIAL     CLOUDY    51  29  42 S5        29.97R
BROOMFIELD     CLOUDY    61  28  29 W21       29.95R
FORT COLLINS   CLOUDY    48  34  57 CALM      29.95R
LONGMONT       CLOUDY    54  33  46 SE3       29.95R
$$

COZ041-046-047-076>085-087-088-191200-
...PIKES PEAK/PALMER DIVIDE AND SOUTHERN FOOTHILLS...

CITY           SKY/WX    TMP DP  RH WIND       PRES   REMARKS
COLO. SPRINGS  MOCLDY    51  28  41 NW7       30.00R
A. F. ACADEMY  CLOUDY    55  24  30 W9        30.01R
ELLICOTT       NOT AVBL
FALCON         MOCLDY    50  25  37 NW9       30.03R
FORT CARSON    MOCLDY    47  29  50 W6        29.97R
LIMON          CLOUDY    45  35  68 N5        29.94R
MONUMENT HILL  CLOUDY    48  27  43 SW10      30.02S
TRINIDAD       CLOUDY    51  37  58 W12       30.01R
$$

COZ042>045-048>051-090-091-191200-
...NORTHEAST COLORADO...

CITY           SKY/WX    TMP DP  RH WIND       PRES   REMARKS
GREELEY ARPT   CLOUDY    45  30  57 N9        29.93S
AKRON          CLOUDY    52  37  56 NW15      29.90R
BURLINGTON     CLOUDY    46  38  73 SW12      29.87R
WRAY           CLOUDY    48  42  79 S3        29.86S
STERLING       CLOUDY    55  39  54 NE3       29.88R
HOLYOKE        CLOUDY    46  41  81 W5        29.85S
FORT MORGAN    CLOUDY    53  33  46 N9        29.91S
$$

COZ086-089-092>099-191200-
...SOUTHEAST COLORADO...

CITY           SKY/WX    TMP DP  RH WIND       PRES   REMARKS
PUEBLO         MOCLDY    47  38  71 CALM      29.93R
LA JUNTA       MOCLDY    57  37  47 SW15      29.90R
LAMAR          MOCLDY    55  40  56 W7        29.88R
SPRINGFIELD      N/A     53  42  66 SW12      29.96S
$$



USA.gov is the U.S. government's official web portal to all federal, state and local government web resources and services.